McHenry, MD

5:54 PM EDT on August 24, 2016 (GMT -0400)
Oakland

Weather History for K2G4 - March, 2014

Change the Weather History Date:

Monday, March 24, 2014

  Actual Average (KMGW) Record (KMGW)
Temperature  
Mean Temperature 18 °F 45 °F  
Max Temperature 28 °F 55 °F 80 °F (2016)
Min Temperature 8 °F 35 °F 14 °F (2014)
Degree Days  
Heating Degree Days 47 20  
Month to date heating degree days 579  
Since 1 July heating degree days 4468  
Cooling Degree Days 0 0  
Month to date cooling degree days 0  
Year to date cooling degree days 0  
Moisture  
Dew Point -1 °F    
Average Humidity 50    
Maximum Humidity 85    
Minimum Humidity 21    
Precipitation  
Precipitation 0.00 in 0.12 in 0.73 in (1969)
Month to date precipitation 2.78  
Year to date precipitation 8.19  
Sea Level Pressure  
Sea Level Pressure 30.07 in    
Wind  
Wind Speed 7 mph (WNW)    
Max Wind Speed 12 mph    
Max Gust Speed 18 mph    
Visibility 10 miles    
Events      
T = Trace of Precipitation, MM = Missing Value Source: NWS Daily Summary

Daily Weather History Graph

Daily Weather History Graph

Search for Another Location

Airport or City:

Trip Planner

Search our weather history database for the weather conditions in past years. The results will help you decide how hot, cold, wet, or windy it might be!

Date:

Astronomy

Mar. 24, 2014 Rise Set
Actual Time 7:14 AM EDT 7:33 PM EDT
Civil Twilight 6:47 AM EDT 8:00 PM EDT
Nautical Twilight 6:15 AM EDT 8:31 PM EDT
Astronomical Twilight 5:43 AM EDT 9:04 PM EDT
Moon 2:41 AM EDT 12:58 PM EDT
Length of Visible Light 13h 12m
Length of Day
12h 19m
Last Quarter, 43% of the Moon is Illuminated
Mar 24
Last Quarter
Mar 30
New
Apr 7
First Quarter
Apr 15
Full
Apr 22
Last Quarter

Hourly Weather History & Observations

Time (EDT) Temp. Windchill Dew Point Humidity Pressure Visibility Wind Dir Wind Speed Gust Speed Precip Events Conditions
12:05 AM 14.0 °F 2.0 °F 5.0 °F 67% 30.11 in 10.0 mi NW 9.2 mph - N/A   Clear
12:25 AM 14.0 °F 3.9 °F 5.0 °F 67% 30.11 in 10.0 mi NW 6.9 mph 17.3 mph N/A   Clear
12:45 AM 12.2 °F 2.9 °F 5.0 °F 73% 30.11 in 10.0 mi NW 5.8 mph - N/A   Scattered Clouds
1:05 AM 12.2 °F 0.7 °F 5.0 °F 73% 30.11 in 10.0 mi NW 8.1 mph - N/A   Mostly Cloudy
1:25 AM 12.2 °F 1.7 °F 5.0 °F 73% 30.11 in 10.0 mi NW 6.9 mph - N/A   Scattered Clouds
1:45 AM 12.2 °F 0.7 °F 5.0 °F 73% 30.11 in 10.0 mi NW 8.1 mph - N/A   Clear
2:05 AM 10.4 °F -0.4 °F 5.0 °F 79% 30.10 in 10.0 mi NW 6.9 mph - N/A   Clear
2:25 AM 10.4 °F -1.5 °F 5.0 °F 79% 30.10 in 10.0 mi NW 8.1 mph - N/A   Clear
2:40 AM 10.4 °F 0.8 °F 5.0 °F 79% 30.10 in 10.0 mi NW 5.8 mph - N/A   Clear
3:05 AM 10.4 °F 4.0 °F 5.0 °F 79% 30.09 in 10.0 mi NW 3.5 mph - N/A   Clear
3:25 AM 10.4 °F 0.8 °F 5.0 °F 79% 30.09 in 10.0 mi NW 5.8 mph - N/A   Clear
3:45 AM 10.4 °F 0.8 °F 6.8 °F 85% 30.09 in 10.0 mi NW 5.8 mph - N/A   Mostly Cloudy
4:05 AM 10.4 °F 2.2 °F 6.8 °F 85% 30.09 in 10.0 mi NW 4.6 mph - N/A   Overcast
4:25 AM 10.4 °F 0.8 °F 5.0 °F 79% 30.09 in 10.0 mi NW 5.8 mph - N/A   Overcast
4:45 AM 10.4 °F -0.4 °F 5.0 °F 79% 30.08 in 10.0 mi NNW 6.9 mph - N/A   Overcast
5:05 AM 10.4 °F -0.4 °F 5.0 °F 79% 30.09 in 10.0 mi NW 6.9 mph - N/A   Mostly Cloudy
5:25 AM 8.6 °F 0.1 °F 5.0 °F 85% 30.09 in 10.0 mi NW 4.6 mph - N/A   Scattered Clouds
5:45 AM 8.6 °F 0.1 °F 3.2 °F 79% 30.10 in 10.0 mi NW 4.6 mph - N/A   Clear
6:05 AM 8.6 °F 2.0 °F 3.2 °F 79% 30.10 in 10.0 mi WNW 3.5 mph - N/A   Clear
6:25 AM 8.6 °F 0.1 °F 3.2 °F 79% 30.10 in 10.0 mi NW 4.6 mph - N/A   Clear
6:45 AM 8.6 °F 2.0 °F 3.2 °F 79% 30.10 in 10.0 mi NW 3.5 mph - N/A   Clear
7:05 AM 8.6 °F -1.3 °F 3.2 °F 79% 30.11 in 10.0 mi NW 5.8 mph - N/A   Scattered Clouds
7:25 AM 8.6 °F -2.6 °F 3.2 °F 79% 30.12 in 10.0 mi NW 6.9 mph - N/A   Overcast
7:45 AM 8.6 °F 0.1 °F 3.2 °F 79% 30.12 in 10.0 mi NNW 4.6 mph - N/A   Overcast
8:05 AM 8.6 °F 0.1 °F 5.0 °F 85% 30.12 in 10.0 mi NW 4.6 mph - N/A   Mostly Cloudy
8:30 AM 10.4 °F 2.2 °F 5.0 °F 79% 30.12 in 4.0 mi NNW 4.6 mph - N/A   Haze
8:50 AM 12.2 °F 4.3 °F 5.0 °F 73% 30.12 in 10.0 mi NNW 4.6 mph - N/A   Scattered Clouds
9:10 AM 12.2 °F 6.1 °F 3.2 °F 67% 30.13 in 10.0 mi NNE 3.5 mph - N/A   Mostly Cloudy
9:30 AM 12.2 °F 6.1 °F 1.4 °F 62% 30.13 in 10.0 mi NW 3.5 mph - N/A   Overcast
9:50 AM 12.2 °F 4.3 °F 1.4 °F 62% 30.13 in 10.0 mi WNW 4.6 mph - N/A   Mostly Cloudy
10:10 AM 14.0 °F 8.2 °F 3.2 °F 62% 30.12 in 10.0 mi NNW 3.5 mph - N/A   Clear
10:30 AM 14.0 °F 6.5 °F 1.4 °F 57% 30.12 in 10.0 mi WNW 4.6 mph - N/A   Scattered Clouds
10:50 AM 15.8 °F 6.1 °F 1.4 °F 53% 30.11 in 10.0 mi NW 6.9 mph - N/A   Scattered Clouds
11:10 AM 17.6 °F 12.3 °F 1.4 °F 49% 30.12 in 10.0 mi WNW 3.5 mph - N/A   Clear
11:30 AM 17.6 °F 5.7 °F -0.4 °F 45% 30.12 in 10.0 mi West 10.4 mph - N/A   Clear
11:50 AM 19.4 °F 9.5 °F -0.4 °F 42% 30.12 in 10.0 mi West 8.1 mph - N/A   Scattered Clouds
12:10 PM 19.4 °F 8.6 °F -0.4 °F 42% 30.11 in 10.0 mi NNW 9.2 mph - N/A   Scattered Clouds
12:30 PM 19.4 °F 10.4 °F -2.2 °F 39% 30.11 in 10.0 mi WNW 6.9 mph - N/A   Clear
12:50 PM 21.2 °F 12.6 °F -2.2 °F 36% 30.11 in 10.0 mi WNW 6.9 mph - N/A   Clear
1:10 PM 21.2 °F 12.6 °F -4.0 °F 33% 30.10 in 10.0 mi West 6.9 mph - N/A   Clear
1:30 PM 23.0 °F 11.7 °F -4.0 °F 31% 30.09 in 10.0 mi West 11.5 mph - N/A   Clear
1:50 PM 23.0 °F 13.9 °F -5.8 °F 28% 30.07 in 10.0 mi WNW 8.1 mph - N/A   Scattered Clouds
2:10 PM 24.8 °F 14.6 °F -5.8 °F 26% 30.07 in 10.0 mi WSW 10.4 mph - N/A   Overcast
2:30 PM 24.8 °F 16.1 °F -4.0 °F 28% 30.05 in 10.0 mi West 8.1 mph 11.5 mph N/A   Overcast
2:50 PM 26.6 °F 17.5 °F -5.8 °F 24% 30.05 in 10.0 mi WNW 9.2 mph 17.3 mph N/A   Overcast
3:10 PM 26.6 °F 19.1 °F -5.8 °F 24% 30.04 in 10.0 mi West 6.9 mph - N/A   Scattered Clouds
3:30 PM 26.6 °F 16.2 °F -5.8 °F 24% 30.03 in 10.0 mi West 11.5 mph 18.4 mph N/A   Clear
3:50 PM 26.6 °F 17.5 °F -5.8 °F 24% 30.03 in 10.0 mi West 9.2 mph - N/A   Clear
4:10 PM 26.6 °F 19.1 °F -7.6 °F 22% 30.02 in 10.0 mi WNW 6.9 mph 17.3 mph N/A   Clear
4:30 PM 26.6 °F 16.8 °F -7.6 °F 22% 30.03 in 10.0 mi WNW 10.4 mph 18.4 mph N/A   Clear
4:50 PM 28.4 °F 18.5 °F -5.8 °F 23% 30.01 in 10.0 mi WNW 11.5 mph 18.4 mph N/A   Clear
5:10 PM 28.4 °F 18.5 °F -7.6 °F 21% 30.01 in 10.0 mi WNW 11.5 mph 17.3 mph N/A   Clear
5:30 PM 28.4 °F 20.4 °F -7.6 °F 21% 30.01 in 10.0 mi WNW 8.1 mph 17.3 mph N/A   Clear
5:50 PM 28.4 °F 20.4 °F -7.6 °F 21% 30.01 in 10.0 mi West 8.1 mph - N/A   Clear
6:10 PM 26.6 °F 19.1 °F -7.6 °F 22% 30.00 in 10.0 mi WSW 6.9 mph - N/A   Clear
6:30 PM 26.6 °F 17.5 °F -7.6 °F 22% 30.00 in 10.0 mi West 9.2 mph - N/A   Clear
6:50 PM 26.6 °F 18.2 °F -7.6 °F 22% 30.01 in 10.0 mi West 8.1 mph - N/A   Clear
7:10 PM 24.8 °F 16.9 °F -5.8 °F 26% 30.01 in 10.0 mi West 6.9 mph - N/A   Clear
7:30 PM 24.8 °F 17.9 °F -7.6 °F 24% 30.01 in 10.0 mi WSW 5.8 mph - N/A   Clear
7:50 PM 23.0 °F 17.0 °F -5.8 °F 28% 30.01 in 10.0 mi West 4.6 mph - N/A   Clear
8:10 PM 23.0 °F 17.0 °F -5.8 °F 28% 30.01 in 10.0 mi West 4.6 mph - N/A   Clear
8:30 PM 23.0 °F 18.4 °F -5.8 °F 28% 30.02 in 10.0 mi WSW 3.5 mph - N/A   Clear
8:50 PM 23.0 °F 18.4 °F -5.8 °F 28% 30.02 in 10.0 mi West 3.5 mph - N/A   Clear
9:10 PM 23.0 °F 17.0 °F -5.8 °F 28% 30.02 in 10.0 mi West 4.6 mph - N/A   Clear
9:30 PM 23.0 °F 18.4 °F -5.8 °F 28% 30.01 in 10.0 mi West 3.5 mph - N/A   Clear
9:50 PM 23.0 °F 18.4 °F -5.8 °F 28% 30.01 in 10.0 mi West 3.5 mph - N/A   Clear
10:10 PM 23.0 °F 17.0 °F -5.8 °F 28% 30.01 in 10.0 mi WSW 4.6 mph - N/A   Clear
10:30 PM 23.0 °F 18.4 °F -5.8 °F 28% 30.00 in 10.0 mi West 3.5 mph - N/A   Clear
10:50 PM 23.0 °F 15.8 °F -5.8 °F 28% 29.99 in 10.0 mi WSW 5.8 mph - N/A   Clear
11:10 PM 23.0 °F 18.4 °F -4.0 °F 31% 30.00 in 10.0 mi WSW 3.5 mph - N/A   Clear
11:30 PM 23.0 °F 17.0 °F -4.0 °F 31% 29.99 in 10.0 mi WSW 4.6 mph - N/A   Clear
11:50 PM 23.0 °F 17.0 °F -4.0 °F 31% 29.98 in 10.0 mi WSW 4.6 mph - N/A   Scattered Clouds